Location: Staunton
(38.1490°N, 79.0720°W)
Time: 01:11:16
(UTC-05:00)

ISS - Pass Details

Date: 14 November 2018
Orbit: 402 x 408 km, 51.6° (Epoch: 16 November)

Event Time Altitude Azimuth Distance (km) Brightness Sun altitude
Exits shadow 05:55:50 21° 286° (WNW) 973 -2.6 -12.1°
Maximum altitude 05:57:39 43° 224° (SW) 582 -3.3 -11.8°
Drops below altitude 10° 06:00:45 10° 152° (SSE) 1,453 -0.4 -11.2°
Sets 06:02:53 0° 145° (SE) 2,310 0.9 -10.8°
